Regional Weather Roundup
Issued by NWS Albany, NY

Home | Current Version | Previous Version | Text Only | Print | Product List | Glossary On
Versions: 1 2 3 4 5 6 7 8 9 10 11 12 13 14 15 16 17 18 19 20 21 22 23 24 25 26 27 28
000
ASUS41 KALY 261310
RWRALY

NEW YORK STATE HOURLY WEATHER ROUNDUP
NATIONAL WEATHER SERVICE ALBANY NY
900 AM EDT TUE SEP 26 2017

NOTE: "FAIR" INDICATES FEW OR NO CLOUDS BELOW 12,000 FEET WITH NO
SIGNIFICANT WEATHER AND/OR NO OBSTRUCTIONS TO VISIBILITY.

NYZ032-033-038>043-046>054-057>066-NYZ062>081-082-084-261400-
EAST


CITY           SKY/WX    TMP DP  RH WIND       PRES   REMARKS
ALBANY         CLOUDY    72  67  84 SW3       30.06R
GLENS FALLS    MOSUNNY   69  66  90 CALM      30.05R
POUGHKEEPSIE   MOSUNNY   71  65  81 CALM      30.04S
NEWBURGH       MOSUNNY   72  66  83 CALM      30.07S
MONTGOMERY     MOSUNNY   69  66  90 SW3       30.05S
WHITE PLAINS   PTSUNNY   67  66  97 E5        30.06R FOG
ISLIP          CLOUDY    67  67 100 CALM      30.06R FOG
NEW YORK CITY  CLOUDY    71  68  90 NE8       30.05R
CENTRAL PARK   CLOUDY    71  66  84 SE6       30.08S
$$

NYZ005>009-017-018-044>046-055-056-261400-
CENTRAL


CITY           SKY/WX    TMP DP  RH WIND       PRES   REMARKS
FULTON         CLOUDY    71  67  87 VRB3      30.03R
SYRACUSE       CLOUDY    69  66  90 E5        30.02S
ROME           MOSUNNY   70  66  87 SE3       30.05R
ELMIRA         PTSUNNY   65  65 100 CALM      30.06F FOG
BINGHAMTON     SUNNY     68  66  93 CALM      30.09S
MONTICELLO     MOSUNNY   69  66  90 CALM      30.11S
$$

NYZ026>034-041>043-087-261400-
NORTH


CITY           SKY/WX    TMP DP  RH WIND       PRES   REMARKS
WATERTOWN      MOSUNNY   71  68  90 CALM      30.03R FOG
FORT DRUM      NOT AVBL
OGDENSBURG     FAIR      70  69  97 CALM      30.02S FOG
MASSENA        PTSUNNY   70  67  90 S3        30.03R
SARANAC LAKE   MOSUNNY   63  63 100 CALM      30.09S
PLATTSBURGH    MOSUNNY   68  64  87 CALM      30.03R
$$

NYZ001>004-010>016-019>021-085-261400-
WEST


CITY           SKY/WX    TMP DP  RH WIND       PRES   REMARKS
NIAGARA FALLS  MOSUNNY   73  67  81 S5        30.02R
BUFFALO        PTSUNNY   73  66  78 S6        30.02S
DUNKIRK        MOSUNNY   73  69  87 CALM      30.03S
JAMESTOWN      SUNNY     67  65  93 S5        30.10R
WELLSVILLE     MOSUNNY   72  64  76 CALM      30.13R
ROCHESTER      PTSUNNY   71  67  87 SW6       30.03R
PENN YAN       CLOUDY    71  64  78 SW8       30.05S
$$

             KEY
       WCI = WIND CHILL INDEX
       VSB = VISIBILITY
       HX  = HEAT INDEX
$$




USA.gov is the U.S. government's official web portal to all federal, state and local government web resources and services.